Location: Jaite
(41.2884°N, 81.5737°W)
Time: 09:50:00
(UTC+00:00)

STARLINK-23 - Pass Details

Date: 18 January 2020
Orbit: 528 x 531 km, 53.0° (Epoch: 19 February)

Event Time Altitude Azimuth Distance (km) Brightness Sun altitude
Exits shadow 11:25:05 - 216° (SW) 2,626 6.9 -15.5°
Reaches altitude 10° 11:27:16 10° 211° (SSW) 1,765 6.0 -15.1°
Maximum altitude 11:31:08 49° 136° (SE) 689 4.5 -14.4°
Drops below altitude 10° 11:35:02 10° 61° (ENE) 1,778 6.9 -13.7°
Sets 11:37:18 0° 56° (NE) 2,671 7.7 -13.3°
